EW3225 Weather Reports


time (UTC)temp
C
wind
direction
speed
KPH
gust
KPH
rain 1hr
cm
rain 24hr
cm
rain mn
cm
humidity
%
barometer
mb
20260508013002 19 246 0.0 6.4 0.00 0.00 0.00 73 1013.8
20260508011501 20 235 1.6 9.7 0.00 0.00 0.00 71 1013.7
20260508010001 20 232 0.0 8.0 0.00 0.00 0.00 69 1013.7
20260508004601 21 211 0.0 4.8 0.00 0.00 0.00 68 1013.5
20260508003100 21 184 0.0 8.0 0.00 0.00 0.00 66 1013.5
20260508001604 22 218 0.0 11.3 0.00 0.00 0.00 65 1013.5
20260508000058 22 213 1.6 9.7 0.00 0.00 0.00 64 1013.5
20260507234558 22 174 0.0 6.4 0.00 0.00 0.00 65 1013.6
20260507233057 22 207 1.6 8.0 0.00 0.00 0.00 65 1013.6
20260507231557 22 201 1.6 11.3 0.00 0.00 0.00 64 1013.5
20260507230056 23 215 3.2 16.1 0.00 0.00 0.00 63 1013.6
20260507224555 23 250 0.0 6.4 0.00 0.00 0.00 62 1013.7
20260507223053 23 197 0.0 8.0 0.00 0.00 0.00 62 1013.9
20260507221552 23 220 1.6 11.3 0.00 0.00 0.00 62 1014.0
20260507220050 23 175 1.6 8.0 0.00 0.00 0.00 63 1014.2
20260507214549 23 240 0.0 9.7 0.00 0.00 0.00 63 1014.4
20260507213054 23 240 0.0 8.0 0.00 0.00 0.00 62 1014.5
20260507211551 23 247 1.6 11.3 0.00 0.00 0.00 62 1014.5
20260507210044 23 178 3.2 14.5 0.00 0.00 0.00 61 1014.6
20260507204543 24 185 1.6 9.7 0.00 0.00 0.00 61 1014.6
20260507203043 24 257 1.6 11.3 0.00 0.00 0.00 62 1014.6
20260507201547 24 237 0.0 6.4 0.00 0.00 0.00 61 1014.7
20260507200043 24 223 1.6 9.7 0.00 0.00 0.00 61 1014.9
20260507194539 24 186 1.6 9.7 0.00 0.00 0.00 61 1014.9
20260507193041 24 204 1.6 9.7 0.00 0.00 0.00 60 1015.1
20260507191535 24 215 0.0 3.2 0.00 0.00 0.00 61 1015.2
20260507190033 23 190 0.0 12.9 0.00 0.00 0.00 62 1015.4
20260507184533 23 195 1.6 9.7 0.00 0.00 0.00 63 1015.5
20260507183033 23 201 1.6 11.3 0.00 0.00 0.00 62 1015.7
20260507181529 23 176 1.6 11.3 0.00 0.00 0.00 62 1015.6
20260507180039 23 340 0.0 6.4 0.00 0.00 0.00 61 1015.7
20260507174525 22 340 0.0 9.7 0.00 0.00 0.00 64 1015.7
20260507173027 22 5 0.0 8.0 0.00 0.00 0.00 64 1015.9
20260507171519 22 215 0.0 6.4 0.00 0.00 0.00 65 1016.0
20260507170031 21 217 0.0 3.2 0.00 0.00 0.00 67 1016.0
20260507164512 21 232 0.0 4.8 0.00 0.00 0.00 69 1016.1
20260507163008 20 292 0.0 0.0 0.00 0.00 0.00 74 1016.2
20260507161506 18 292 0.0 3.2 0.00 0.00 0.00 77 1016.2
20260507160002 18 288 0.0 3.2 0.00 0.00 0.00 81 1016.3
20260507154557 17 288 0.0 0.0 0.00 0.00 0.00 87 1016.4
20260507153104 16 285 0.0 0.0 0.00 0.00 0.00 90 1016.6
20260507151549 15 284 0.0 4.8 0.00 0.00 0.00 92 1016.6
20260507150050 15 278 0.0 0.0 0.00 0.00 0.00 94 1016.6
20260507144545 14 278 0.0 0.0 0.00 0.00 0.00 94 1016.5
20260507143051 13 277 0.0 0.0 0.00 0.00 0.00 94 1016.4
20260507141540 12 277 0.0 0.0 0.00 0.00 0.00 94 1016.2
20260507140039 11 277 0.0 0.0 0.00 0.00 0.00 93 1016.1
20260507134539 11 277 0.0 0.0 0.00 0.00 0.00 93 1016.0
20260507133044 11 277 0.0 0.0 0.00 0.00 0.00 92 1015.8
20260507131546 11 277 0.0 0.0 0.00 0.00 0.00 92 1015.6
20260507130038 11 277 0.0 0.0 0.00 0.00 0.00 92 1015.5
20260507124537 11 277 0.0 0.0 0.00 0.00 0.00 92 1015.6
20260507123034 11 277 0.0 0.0 0.00 0.00 0.00 92 1015.5
20260507121534 11 277 0.0 0.0 0.00 0.00 0.00 91 1015.5
20260507120032 11 277 0.0 0.0 0.00 0.00 0.00 91 1015.6
20260507114529 11 277 0.0 0.0 0.00 0.00 0.00 91 1015.6
20260507113027 12 277 0.0 0.0 0.00 0.00 0.00 91 1015.7
20260507111526 12 277 0.0 0.0 0.00 0.00 0.00 91 1015.8
20260507110025 12 277 0.0 0.0 0.00 0.00 0.00 91 1015.8
20260507104523 12 277 0.0 0.0 0.00 0.00 0.00 90 1015.9
20260507103022 12 277 0.0 0.0 0.00 0.00 0.00 90 1015.9
20260507101522 12 277 0.0 0.0 0.00 0.00 0.00 90 1016.0
20260507100020 12 277 0.0 0.0 0.00 0.00 0.00 89 1016.0
20260507094520 12 277 0.0 0.0 0.00 0.00 0.00 89 1016.0
20260507093018 12 277 0.0 0.0 0.00 0.00 0.00 89 1016.2
20260507091515 12 277 0.0 0.0 0.00 0.00 0.00 89 1016.4
20260507090012 12 277 0.0 0.0 0.00 0.00 0.00 88 1016.6
20260507084532 12 277 0.0 0.0 0.00 0.00 0.00 88 1016.8
20260507083009 12 277 0.0 0.0 0.00 0.00 0.00 88 1016.8
20260507081510 13 277 0.0 0.0 0.00 0.00 0.00 87 1016.9
20260507080008 13 277 0.0 0.0 0.00 0.00 0.00 87 1017.0
20260507074508 13 277 0.0 0.0 0.00 0.00 0.00 86 1016.9
20260507073004 13 277 0.0 0.0 0.00 0.00 0.00 86 1016.9
20260507071502 13 277 0.0 0.0 0.00 0.00 0.00 85 1016.9
20260507070108 13 277 0.0 0.0 0.00 0.00 0.00 85 1017.0
20260507064600 13 277 0.0 0.0 0.00 0.00 0.00 85 1017.1
20260507063059 14 277 0.0 0.0 0.00 0.00 0.00 84 1017.2
20260507061558 14 277 0.0 0.0 0.00 0.00 0.00 83 1017.2
20260507054613 14 277 0.0 0.0 0.00 0.00 0.00 81 1017.3
20260507053107 14 277 0.0 0.0 0.00 0.00 0.00 80 1017.2
20260507051600 15 277 0.0 0.0 0.00 0.00 0.00 79 1017.1
20260507050058 15 277 0.0 0.0 0.00 0.00 0.00 79 1017.1
20260507044559 15 277 0.0 0.0 0.00 0.00 0.00 78 1017.1
20260507043055 15 277 0.0 0.0 0.00 0.00 0.00 76 1017.1
20260507041603 15 277 0.0 0.0 0.00 0.00 0.00 75 1017.0
20260507040055 16 277 0.0 0.0 0.00 0.00 0.00 74 1016.9
20260507034557 16 277 0.0 0.0 0.00 0.00 0.00 73 1016.8
20260507033055 16 277 0.0 0.0 0.00 0.00 0.00 71 1016.7
20260507031553 17 277 0.0 0.0 0.00 0.00 0.00 71 1016.6
20260507030052 17 277 0.0 0.0 0.00 0.00 0.00 70 1016.4
20260507024555 17 277 0.0 0.0 0.00 0.00 0.00 69 1016.3
20260507023052 17 277 0.0 3.2 0.00 0.00 0.00 69 1016.2
20260507021608 18 275 0.0 1.6 0.00 0.00 0.00 69 1016.0
20260507020107 18 276 0.0 8.0 0.00 0.00 0.00 68 1015.9
20260507014617 19 291 0.0 3.2 0.00 0.00 0.00 68 1015.8